DW6487 Weather Reports


time (UTC)temp
F
wind
direction
speed
knots
gust
knots
rain 1hr
in
rain 24hr
in
rain mn
in
humidity
%
barometer
mb
20260506084623 52 17 0.0 1.7 0.00 0.00 0.00 91 1015.6
20260506083059 52 355 0.0 1.7 0.00 0.00 0.00 90 1015.6
20260506081601 53 360 0.0 7.0 0.00 0.00 0.00 90 1015.5
20260506073059 53 5 0.0 7.8 0.00 0.00 0.00 89 1015.5
20260506071601 53 17 0.9 9.6 0.00 0.00 0.00 89 1015.4
20260506061600 52 18 0.0 0.9 0.00 0.00 0.00 88 1015.9
20260506050104 53 360 0.0 1.7 0.00 0.00 0.00 89 1015.7
20260506044704 52 27 0.0 8.7 0.00 0.00 0.00 89 1015.6
20260506043109 52 5 0.0 1.7 0.00 0.00 0.00 89 1015.8
20260506041604 52 13 0.0 7.0 0.00 0.00 0.00 89 1015.7
20260506040059 51 22 0.0 9.6 0.00 0.00 0.00 89 1015.6
20260506034628 51 5 0.0 1.7 0.00 0.00 0.00 89 1015.4
20260506033104 51 11 0.0 7.8 0.00 0.00 0.00 89 1015.4
20260506031606 51 16 0.0 8.7 0.00 0.00 0.00 90 1015.3
20260506030058 51 16 0.0 6.1 0.00 0.00 0.00 90 1015.2
20260506024559 51 350 0.0 8.7 0.00 0.00 0.00 90 1015.2
20260506023111 50 5 0.9 7.8 0.00 0.00 0.00 90 1015.3
20260506021558 51 17 0.9 7.8 0.00 0.00 0.00 90 1015.3
20260506020058 51 5 0.0 5.2 0.00 0.00 0.00 90 1015.5
20260506014559 51 21 0.0 1.7 0.00 0.00 0.00 89 1015.4
20260506013059 51 15 0.0 5.2 0.00 0.00 0.00 88 1015.2
20260506011623 52 26 0.0 7.8 0.00 0.00 0.00 88 1015.0
20260506010103 53 355 0.0 8.7 0.00 0.00 0.00 87 1014.7
20260506004626 53 17 0.0 6.1 0.00 0.00 0.00 85 1014.4
20260506003112 54 22 0.0 5.2 0.00 0.00 0.00 85 1014.2
20260506001559 53 219 0.0 7.0 0.00 0.00 0.00 83 1014.0
20260506000058 54 11 0.0 3.5 0.00 0.00 0.00 82 1013.6
20260505234637 54 11 0.0 8.7 0.00 0.00 0.00 78 1013.5
20260505233112 55 13 0.0 7.0 0.00 0.00 0.00 76 1013.4
20260505231601 57 19 0.0 4.3 0.00 0.00 0.00 72 1013.1
20260505230104 58 17 0.0 3.5 0.00 0.00 0.00 69 1012.8
20260505224559 58 355 0.0 1.7 0.00 0.00 0.00 65 1012.7
20260505223059 60 5 0.0 1.7 0.00 0.00 0.00 61 1012.6
20260505221603 61 17 0.0 4.3 0.00 0.00 0.00 59 1012.5
20260505220106 62 15 0.0 7.8 0.00 0.00 0.00 56 1012.2
20260505214605 64 315 0.0 7.8 0.00 0.00 0.00 53 1012.1
20260505213104 65 21 0.0 6.1 0.00 0.00 0.00 51 1011.9
20260505211603 66 15 0.0 7.8 0.00 0.00 0.00 49 1012.0
20260505210059 66 5 0.0 8.7 0.00 0.00 0.00 48 1012.0
20260505204608 66 30 0.9 12.2 0.00 0.00 0.00 47 1012.1
20260505203059 67 348 0.9 8.7 0.00 0.00 0.00 47 1011.9
20260505201602 67 298 0.0 10.4 0.00 0.00 0.00 47 1012.0
20260505200104 68 304 0.9 8.7 0.00 0.00 0.00 46 1011.8
20260505194559 69 273 1.7 11.3 0.00 0.00 0.00 46 1011.7
20260505193100 69 16 0.9 8.7 0.00 0.00 0.00 45 1011.4
20260505191602 69 12 0.0 7.8 0.00 0.00 0.00 48 1011.4
20260505190058 71 26 0.0 8.7 0.00 0.00 0.00 46 1011.2
20260505184603 71 183 0.0 5.2 0.00 0.00 0.00 47 1011.3
20260505183059 71 182 0.0 1.7 0.00 0.00 0.00 48 1011.2
20260505181600 71 13 0.0 4.3 0.00 0.00 0.00 50 1011.4
20260505180104 71 21 0.0 2.6 0.00 0.00 0.00 48 1011.5
20260505174613 71 13 0.0 5.2 0.00 0.00 0.00 48 1011.5
20260505173059 70 18 0.0 1.7 0.00 0.00 0.00 49 1011.5
20260505171559 70 16 0.0 1.7 0.00 0.00 0.00 49 1011.6
20260505170137 69 360 0.0 1.7 0.00 0.00 0.00 51 1011.7
20260505164559 69 11 0.0 1.7 0.00 0.00 0.00 51 1011.7
20260505163058 69 191 0.0 1.7 0.00 0.00 0.00 54 1011.6
20260505161604 68 355 0.0 2.6 0.00 0.00 0.00 53 1011.5
20260505153100 66 13 0.0 1.7 0.00 0.00 0.00 57 1011.6
20260505151558 65 19 0.0 1.7 0.00 0.00 0.00 57 1011.7
20260505124559 55 187 0.0 0.0 0.00 0.01 0.00 67 1011.5
20260505123114 57 187 0.0 0.0 0.00 0.01 0.00 65 1011.4
20260505121558 55 187 0.0 0.0 0.00 0.01 0.00 66 1011.2
20260505120059 55 187 0.0 0.0 0.00 0.01 0.00 68 1011.2
20260505114615 53 188 0.0 0.0 0.00 0.01 0.00 72 1011.2
20260505113100 52 187 0.0 0.0 0.00 0.01 0.00 73 1011.2
20260505111610 52 187 0.0 0.0 0.00 0.01 0.00 74 1011.1
20260505101559 48 187 0.0 0.0 0.00 0.01 0.00 80 1010.5
20260505100100 47 187 0.0 0.0 0.00 0.01 0.00 82 1010.3
20260505094600 45 187 0.0 0.0 0.00 0.01 0.00 84 1010.1
20260505093059 45 187 0.0 0.0 0.00 0.01 0.00 85 1010.2
20260505091559 44 187 0.0 0.0 0.00 0.01 0.00 85 1010.0
20260505090101 44 187 0.0 0.0 0.00 0.01 0.00 86 1009.8